Regional Weather Roundup
Issued by NWS Grand Forks, ND

Home | Current Version | Previous Version | Graphics & Text | Print | Product List | Glossary On
Versions: 1 2 3 4 5 6 7 8 9 10 11 12 13 14 15 16 17 18 19 20 21 22 23 24 25 26 27 28 29 30 31 32 33 34 35 36 37 38 39 40 41 42 43 44 45 46 47 48 49 50
000
ASUS43 KFGF 242010
RWRFGF
PRAIRIE TO PINES  WEATHER ROUNDUP
NATIONAL WEATHER SERVICE EASTERN NORTH DAKOTA/GRAND FORKS ND
200 PM CST FRI NOV 24 2017

 **SATELLITE DATA USED TO AUGMENT SKY COVER AT AUTOMATED STATIONS**
 *****  WEATHER ACROSS EASTERN NORTH DAKOTA  *****

CITY           SKY/WX    TMP DP  RH WIND       PRES   REMARKS
GRAND FORKS    FAIR      45  37  73 NW15G25   29.50R
GRAND FRKS AFB FAIR      46  35  67 NW20G25   29.50R
GRAND FRKS NWS   N/A     43 N/A N/A N7          N/A
DEVILS LAKE    FAIR      45  35  68 W20       29.54R
FARGO          FAIR      51  39  63 NW23G30   29.50R
WAHPETON ARPT  NOT AVBL
$$

 ***** WEATHER ACROSS CENTRAL AND WESTERN NORTH DAKOTA  *****

CITY           SKY/WX    TMP DP  RH WIND       PRES   REMARKS
BISMARCK       FAIR      55  38  52 W21G30    29.69R
MINOT          FAIR      51  32  48 W29G36    29.62R
JAMESTOWN      FAIR      50  38  63 NW26G37   29.57R
MINOT AFB      FAIR      50  33  52 NW23G35   29.60R
GARRISON         N/A     49  37  63 W20G36    29.66R
WILLISTON      FAIR      52  31  44 NW20G29   29.72R
DICKINSON      FAIR      51  34  52 NW20      29.73R
HETTINGER      FAIR      50  35  56 NW24G32   29.77R
$$

 *****  OTHER AIRPORT OBSERVATIONS IN OUR AREA  *****

CITY           SKY/WX    TMP DP  RH WIND       PRES   REMARKS
WALHALLA       FAIR      45  34  65 NW17G28   29.46R
GRAFTON AIRPOR FAIR      41  34  75 NW18      29.49R
VALLEY CITY AR FAIR      48  37  66 NW22G35   29.57R
CANDO          FAIR      46  34  61 W21G30    29.55R
CAVALIER APRT  FAIR      45  34  65 NW17G28   29.46R
GWINNER          N/A     52  37  58 NW28      29.57R
SHEYENNE NWR     N/A     52  38  60 NW14      29.95S
ROLLA          FAIR      45  34  65 NW18G31   29.52R
 ***** THE ABOVE OBSERVATIONS ARE NON NWS ARE NOT QUALITY
       CONTROLLED AND MAY MIS-REPORT RAIN FOR SNOW...
$$

  *****  WEATHER ACROSS NORTHERN MINNESOTA  *****

CITY           SKY/WX    TMP DP  RH WIND       PRES   REMARKS
FLAG ISLAND    FAIR      37  30  75 NW18G25   29.35R
WARROAD        PTSUNNY   43  34  70 NW10      29.38R
ROSEAU         FAIR      43  36  75 NW9       29.39R
HALLOCK        FAIR      41  36  81 NW12      29.45R
THF RVR FALLS  FAIR      41  34  76 NW21G31   29.46R
BAUDETTE       NOT AVBL
WASKISH        FAIR      39  36  87 W10       29.37R
CROOKSTON      FAIR      45  37  76 NW21G31   29.49R
STEPHEN NDAWN    N/A     39  34  81 NW9         N/A
GREENBUSH NDAW   N/A     41  34  75 NW14        N/A
$$
  *****  WEATHER ACROSS CENTRAL AND WEST MINNESOTA  *****

CITY           SKY/WX    TMP DP  RH WIND       PRES   REMARKS
FOSSTON        FAIR      43  36  75 NW15G21   29.46R
BEMIDJI        FAIR      43  37  78 W16       29.40R
PARK RAPIDS    PTSUNNY   44  39  82 NW16G25   29.42R
ELBOW LAKE     FAIR      45  41  86 W18G30    29.50R
WADENA         FAIR      43  39  87 NW14G25   29.45R
DETROIT LAKES  FAIR      45  37  76 NW15G21   29.48R
MOORHEAD       FAIR      50  37  62 NW28      29.51R
FERGUS FALLS   FAIR      46  43  87 NW21      29.53R
MORRIS MN      FAIR      48  43  81 NW22G33   29.49R
STAPLES        FAIR      45  39  81 NW14      29.43R
$$
  *****  WEATHER ELSEWHERE ACROSS MINNESOTA  *****

CITY           SKY/WX    TMP DP  RH WIND       PRES   REMARKS
DULUTH         LGT RAIN  41  40  96 NW14      29.32R
INTRNTL FALLS  FAIR      41  32  70 W15       29.33R
ELY            FAIR      39  37  93 W7        29.28R
CLOQUET        CLOUDY    43  39  87 NW9       29.33R
WHEATON        FAIR      48  39  71 W20G26    29.56R
BRAINERD       LGT RAIN  46  41  82 W5        29.39R
HIBBING        CLOUDY    39  38  96 W6        29.32R
ALEXANDRIA     PTSUNNY   47  41  80 NW13      29.47R
SAINT CLOUD    CLOUDY    51  43  74 NW22G31   29.39R
MINNEAPOLIS    PTSUNNY   58  42  55 W7        29.39S
$$

  *****  WEATHER ACROSS SOUTH DAKOTA  *****

CITY           SKY/WX    TMP DP  RH WIND       PRES   REMARKS
SIOUX FALLS    PTSUNNY   59  42  53 NW28G38   29.54R
BROOKINGS      FAIR      54  43  66 NW33G39   29.53
WATERTOWN      FAIR      49  41  74 NW21G31   29.58R
HURON          FAIR      56  38  50 NW22G36   29.65R
SISSETON         N/A     52  40  63 NW28G36   29.55R
ABERDEEN       FAIR      55  34  45 NW22G30   29.65R
MITCHELL       FAIR      59  41  51 NW35G44   29.64R
PIERRE         FAIR      56  37  49 NW25G33   29.72R
MOBRIDGE       FAIR      57  35  43 NW20G29   29.67R
RAPID CITY     FAIR      54  24  31 NW33G41   29.84R
$$

  *****  SOME WEATHER IN NEARBY STATES *****

CITY           SKY/WX    TMP DP  RH WIND       PRES   REMARKS
GLASGOW MT     FAIR      48  31  51 NW12      29.78S
GREAT FALLS MT FAIR      44  20  38 W28G35    29.88R
CHEYENNE WY    CLOUDY    51  35  54 N10       29.91R
SCOTTSBLUFF NE FAIR      60  28  29 NW18G31   29.88S
OMAHA NE       FAIR      67  41  38 N30G41    29.56R
DES MOINES IA  FAIR      70  41  34 W20G29    29.46R
DAVENPORT IA   FAIR      68  38  33 S21G32    29.44F
CHICAGO IL     FAIR      62  38  40 S23G31    29.49F
EAU CLAIRE WI  FAIR      58  39  49 NW12G24   29.36R
LA CROSSE WI   FAIR      64  40  41 W14       29.36R
$$

  *****  SOME NATIONAL WEATHER *****

CITY           SKY/WX    TMP DP  RH WIND       PRES   REMARKS
LA GUARDIA NY  FAIR      51  21  30 S8        29.96F
RALEIGH NC     FAIR      57  24  28 VRB3      29.98F
ATLANTA GA     FAIR      63  43  48 CALM      29.94F
NEW ORLEANS LA FAIR      63  29  27 CALM      29.99F
OKLAHOMA CITY  FAIR      79  35  20 S20       29.73F
ALBUQUERQUE NM FAIR      63  26  24 S6        30.04F
SALT LAKE CITY FAIR      63  38  39 N7        30.06S
LOS ANGELES CA PTSUNNY   74  56  53 W12       29.90F
BOISE ID       FAIR      52  34  50 W7        30.12S
SEATTLE WA     CLOUDY    51  40  65 S12       30.09S
$$

*** WEATHER ACROSS MANITOBA...SASKATCHEWAN AND ONTARIO ***
                ***ONTARIO***

CITY           SKY/WX    TMP DP  RH WIND       PRES   REMARKS
GERALDTON      CLOUDY    34  32  93 NW5       29.12R
THUNDER BAY    CLOUDY    41  37  87 SW7       29.20R
SIOUX LOOKOUT  CLOUDY    32  30  93 NW12      29.24R WCI  23
TORONTO        PTSUNNY   50  32  50 SW15G22   29.67F
BIG TROUT LK   FLURRIES  12   9  85 N8        29.16  WCI   1
PICKLE LAKE    FLURRIES  27  23  86 W14       29.15R WCI  15
DRYDEN         CLOUDY    34  30  86 W17G26    29.27R WCI  23
KENORA         CLOUDY    36  30  80 W9        29.32R
$$
                *** MANITOBA***

CITY           SKY/WX    TMP DP  RH WIND       PRES   REMARKS
BRANDON        MOSUNNY   37  30  75 NW21G29   29.51R
DAUPHIN        CLOUDY    30  25  80 NE14      29.50R WCI  20
ISLAND LAKE    LGT SNOW   9   5  85 N15G22    29.35R WCI  -8
PILOT MOUND      N/A     41  32  70 W14G22      N/A
THE PAS        CLOUDY    12   3  67 NW16G22   29.58R WCI  -4
THOMPSON       FLURRIES   5  -2  72 N9        29.51R WCI  -9
WINNIPEG       MOSUNNY   37  30  75 W14G21    29.43R
LYNN LAKE      SUNNY      3  -2  78 NW12      29.56R WCI -13
CHURCHILL      LGT SNOW   5   1  85 NW14      29.46R WCI -12
$$
                ***SASKATCHEWAN***

CITY           SKY/WX    TMP DP  RH WIND       PRES   REMARKS
ESTEVAN        PTSUNNY   45  32  61 W26G33    29.65R
KINDERSLEY     PTSUNNY   34  28  80 W7        29.68R
LLOYDMINSTER   PTSUNNY   36  30  80 W13       29.62R
PRINCE ALBERT  MOSUNNY   23  12  63 N8        29.65R WCI  14
REGINA         PTSUNNY   37  32  81 NW10      29.65R
YORKTON        PTSUNNY   34  27  75 NW25G33   29.55R WCI  21
N. BATTLEFORD  SUNNY     36  28  75 W13       29.65R
LA RONGE       PTSUNNY   12   5  73 W12       29.66R WCI  -2
SASKATOON      PTSUNNY   36  30  80 W8        29.66R
SWIFT CURRENT  PTSUNNY   41  30  65 W15G21    29.68S
$$
NOTE: THESE ARE AUTOMATED STATIONS WITH LIMITED QUALITY CONTROL
      "FAIR" INDICATES FEW OR NO CLOUDS BELOW 12,000 FEET WITH NO
      SIGNIFICANT WEATHER AND/OR OBSTRUCTIONS TO VISIBILITY.
      SKY/WX - SKY CONDITION AND SIGNIFICANT WEATHER.
      TMP - AIR TEMPERATURE.    DP   - DEWPOINT TEMPERATURE.
      RH  - RELATIVE HUMIDITY.  PRES - PRESSURE.
      HX  - HEAT INDEX.         WCI  - WIND CHILL INDEX.
$



USA.gov is the U.S. government's official web portal to all federal, state and local government web resources and services.